Location: Del Amo
(33.8464°N, 118.2104°W)
Time: 06:53:01
(UTC+00:00)

Vanguard 3 - Pass Details

Date: 18 September 2024
Orbit: 507 x 3223 km, 33.3° (Epoch: 09 October)

Event Time Altitude Azimuth Distance (km) Brightness Sun altitude
Rises 21:25:30 0° 283° (WNW) 6,573 12.0 50.2°
Reaches altitude 10° 21:31:58 10° 270° (W) 5,078 11.8 49.3°
Maximum altitude 21:40:35 20° 231° (SW) 3,539 11.7 48.0°
Drops below altitude 10° 21:46:54 10° 189° (S) 3,550 11.1 47.1°
Sets 21:50:23 0° 171° (S) 4,107 11.1 46.5°
